User: anonymous   Login
Location: Bégole
(43.1574°N, 0.3291°E)
Time: 21:06:58
(UTC+00:00)
Language:

Cosmos 1697 Rocket - Orbit

View from above orbital plane
View from above orbital plane
View from above satellite
View from above satellite

Ground track
Ground track

The orbit data is extracted from the following two-line orbital elements,

1 16182U 85097B   24058.31738671 -.00000137  00000-0 -44924-4 0  9992
2 16182  71.0010 261.1294 0009551 298.0930 234.3377 14.16396320982558
Epoch (UTC): 27 February 2024 07:37:02
Eccentricity: 0.0009551
inclination: 71.0010°
perigee height: 830 km
apogee height: 844 km
right ascension of ascending node: 261.1294°
argument of perigee: 298.0930°
revolutions per day: 14.16396320
mean anomaly at epoch: 234.3377°
orbit number at epoch: 98255

The dashed part of the orbit path shows where the satellite is in the earth's shadow,  

DLR